Year,Month,Day,Hour,Minute,Value (Times are PST for temperature in C)
2015,04,16,00,00,4.30
2015,04,16,00,01,4.30
2015,04,16,00,02,4.30
2015,04,16,00,03,4.30
2015,04,16,00,04,4.30
2015,04,16,00,05,4.30
2015,04,16,00,06,4.20
2015,04,16,00,07,4.20
2015,04,16,00,08,4.20
2015,04,16,00,09,4.20
2015,04,16,00,10,4.20
2015,04,16,00,11,4.20
2015,04,16,00,12,4.20
2015,04,16,00,13,4.20
2015,04,16,00,14,4.20
2015,04,16,00,15,4.20
2015,04,16,00,16,4.10
2015,04,16,00,17,4.10
2015,04,16,00,18,4.10
2015,04,16,00,19,4.10
2015,04,16,00,20,4.20
2015,04,16,00,21,4.20
2015,04,16,00,22,4.20
2015,04,16,00,23,4.20
2015,04,16,00,24,4.10
2015,04,16,00,25,4.10
2015,04,16,00,26,4.10
2015,04,16,00,27,4.10
2015,04,16,00,28,4.10
2015,04,16,00,29,4.10
2015,04,16,00,30,4.10
2015,04,16,00,31,4.10
2015,04,16,00,32,4.10
2015,04,16,00,33,4.10
2015,04,16,00,34,4.10
2015,04,16,00,35,4.10
2015,04,16,00,36,4.10
2015,04,16,00,37,4.10
2015,04,16,00,38,4.10
2015,04,16,00,39,4.10
2015,04,16,00,40,4.00
2015,04,16,00,41,4.00
2015,04,16,00,42,4.00
2015,04,16,00,43,4.00
2015,04,16,00,44,4.00
2015,04,16,00,45,4.00
2015,04,16,00,46,4.00
2015,04,16,00,47,4.00
2015,04,16,00,48,4.00
2015,04,16,00,49,3.90
2015,04,16,00,50,3.90
2015,04,16,00,51,3.90
2015,04,16,00,52,3.90
2015,04,16,00,53,3.90
2015,04,16,00,54,3.90
2015,04,16,00,55,3.80
2015,04,16,00,56,3.80
2015,04,16,00,57,3.80
2015,04,16,00,58,3.80
2015,04,16,00,59,3.80
2015,04,16,01,00,3.80
2015,04,16,01,01,3.80
2015,04,16,01,02,3.80
2015,04,16,01,03,3.80
2015,04,16,01,04,3.80
2015,04,16,01,05,3.80
2015,04,16,01,06,3.90
2015,04,16,01,07,3.90
2015,04,16,01,08,3.80
2015,04,16,01,09,3.80
2015,04,16,01,10,3.80
2015,04,16,01,11,3.80
2015,04,16,01,12,3.80
2015,04,16,01,13,3.80
2015,04,16,01,14,3.80
2015,04,16,01,15,3.80
2015,04,16,01,16,3.70
2015,04,16,01,17,3.70
2015,04,16,01,18,3.70
2015,04,16,01,19,3.70
2015,04,16,01,20,3.70
2015,04,16,01,21,3.70
2015,04,16,01,22,3.70
2015,04,16,01,23,3.70
2015,04,16,01,24,3.70
2015,04,16,01,25,3.60
2015,04,16,01,26,3.60
2015,04,16,01,27,3.60
2015,04,16,01,28,3.60
2015,04,16,01,29,3.60
2015,04,16,01,30,3.60
2015,04,16,01,31,3.60
2015,04,16,01,32,3.60
2015,04,16,01,33,3.60
2015,04,16,01,34,3.60
2015,04,16,01,35,3.60
2015,04,16,01,36,3.60
2015,04,16,01,37,3.60
2015,04,16,01,38,3.60
2015,04,16,01,39,3.60
2015,04,16,01,40,3.60
2015,04,16,01,41,3.60
2015,04,16,01,42,3.60
2015,04,16,01,43,3.60
2015,04,16,01,44,3.60
2015,04,16,01,45,3.60
2015,04,16,01,46,3.60
2015,04,16,01,47,3.60
2015,04,16,01,48,3.60
2015,04,16,01,49,3.60
2015,04,16,01,50,3.60
2015,04,16,01,51,3.60
2015,04,16,01,52,3.60
2015,04,16,01,53,3.60
2015,04,16,01,54,3.60
2015,04,16,01,55,3.60
2015,04,16,01,56,3.60
2015,04,16,01,57,3.60
2015,04,16,01,58,3.60
2015,04,16,01,59,3.60
2015,04,16,02,00,3.60
2015,04,16,02,01,3.60
2015,04,16,02,02,3.60
2015,04,16,02,03,3.60
2015,04,16,02,04,3.60
2015,04,16,02,05,3.60
2015,04,16,02,06,3.60
2015,04,16,02,07,3.60
2015,04,16,02,08,3.60
2015,04,16,02,09,3.60
2015,04,16,02,10,3.50
2015,04,16,02,11,3.50
2015,04,16,02,12,3.50
2015,04,16,02,13,3.50
2015,04,16,02,14,3.50
2015,04,16,02,15,3.40
2015,04,16,02,16,3.40
2015,04,16,02,17,3.40
2015,04,16,02,18,3.40
2015,04,16,02,19,3.40
2015,04,16,02,20,3.40
2015,04,16,02,21,3.40
2015,04,16,02,22,3.30
2015,04,16,02,23,3.30
2015,04,16,02,24,3.30
2015,04,16,02,25,3.30
2015,04,16,02,26,3.30
2015,04,16,02,27,3.30
2015,04,16,02,28,3.30
2015,04,16,02,29,3.30
2015,04,16,02,30,3.30
2015,04,16,02,31,3.30
2015,04,16,02,32,3.30
2015,04,16,02,33,3.30
2015,04,16,02,34,3.30
2015,04,16,02,35,3.30
2015,04,16,02,36,3.30
2015,04,16,02,37,3.30
2015,04,16,02,38,3.30
2015,04,16,02,39,3.30
2015,04,16,02,40,3.30
2015,04,16,02,41,3.30
2015,04,16,02,42,3.30
2015,04,16,02,43,3.20
2015,04,16,02,44,3.20
2015,04,16,02,45,3.20
2015,04,16,02,46,3.20
2015,04,16,02,47,3.10
2015,04,16,02,48,3.10
2015,04,16,02,49,3.10
2015,04,16,02,50,3.00
2015,04,16,02,51,3.00
2015,04,16,02,52,3.00
2015,04,16,02,53,2.90
2015,04,16,02,54,2.90
2015,04,16,02,55,2.90
2015,04,16,02,56,2.90
2015,04,16,02,57,2.90
2015,04,16,02,58,2.90
2015,04,16,02,59,2.90
2015,04,16,03,00,2.90
2015,04,16,03,01,2.90
2015,04,16,03,02,2.90
2015,04,16,03,03,2.90
2015,04,16,03,04,2.90
2015,04,16,03,05,2.90
2015,04,16,03,06,2.90
2015,04,16,03,07,2.90
2015,04,16,03,08,2.90
2015,04,16,03,09,2.90
2015,04,16,03,10,2.90
2015,04,16,03,11,2.90
2015,04,16,03,12,2.90
2015,04,16,03,13,3.00
2015,04,16,03,14,3.00
2015,04,16,03,15,3.10
2015,04,16,03,16,3.10
2015,04,16,03,17,3.10
2015,04,16,03,18,3.10
2015,04,16,03,19,3.10
2015,04,16,03,20,3.10
2015,04,16,03,21,3.10
2015,04,16,03,22,3.10
2015,04,16,03,23,3.10
2015,04,16,03,24,3.10
2015,04,16,03,25,3.10
2015,04,16,03,26,3.10
2015,04,16,03,27,3.10
2015,04,16,03,28,3.10
2015,04,16,03,29,3.10
2015,04,16,03,30,3.10
2015,04,16,03,31,3.10
2015,04,16,03,32,3.10
2015,04,16,03,33,3.10
2015,04,16,03,34,3.10
2015,04,16,03,35,3.10
2015,04,16,03,36,3.00
2015,04,16,03,37,3.10
2015,04,16,03,38,3.00
2015,04,16,03,39,3.10
2015,04,16,03,40,3.10
2015,04,16,03,41,3.10
2015,04,16,03,42,3.10
2015,04,16,03,43,3.10
2015,04,16,03,44,3.10
2015,04,16,03,45,3.10
2015,04,16,03,46,3.10
2015,04,16,03,47,3.20
2015,04,16,03,48,3.20
2015,04,16,03,49,3.20
2015,04,16,03,50,3.20
2015,04,16,03,51,3.20
2015,04,16,03,52,3.20
2015,04,16,03,53,3.30
2015,04,16,03,54,3.30
2015,04,16,03,55,3.30
2015,04,16,03,56,3.30
2015,04,16,03,57,3.30
2015,04,16,03,58,3.30
2015,04,16,03,59,3.30
2015,04,16,04,00,3.30
2015,04,16,04,01,3.30
2015,04,16,04,02,3.30
2015,04,16,04,03,3.30
2015,04,16,04,04,3.30
2015,04,16,04,05,3.30
2015,04,16,04,06,3.30
2015,04,16,04,07,3.30
2015,04,16,04,08,3.30
2015,04,16,04,09,3.30
2015,04,16,04,10,3.30
2015,04,16,04,11,3.30
2015,04,16,04,12,3.20
2015,04,16,04,13,3.20
2015,04,16,04,14,3.20
2015,04,16,04,15,3.20
2015,04,16,04,16,3.20
2015,04,16,04,17,3.20
2015,04,16,04,18,3.10
2015,04,16,04,19,3.10
2015,04,16,04,20,3.10
2015,04,16,04,21,3.10
2015,04,16,04,22,3.10
2015,04,16,04,23,3.10
2015,04,16,04,24,3.10
2015,04,16,04,25,3.10
2015,04,16,04,26,3.10
2015,04,16,04,27,3.00
2015,04,16,04,28,3.00
2015,04,16,04,29,3.00
2015,04,16,04,30,3.00
2015,04,16,04,31,3.00
2015,04,16,04,32,3.00
2015,04,16,04,33,3.00
2015,04,16,04,34,3.00
2015,04,16,04,35,2.90
2015,04,16,04,36,2.90
2015,04,16,04,37,2.90
2015,04,16,04,38,2.90
2015,04,16,04,39,2.90
2015,04,16,04,40,2.90
2015,04,16,04,41,2.90
2015,04,16,04,42,2.90
2015,04,16,04,43,2.90
2015,04,16,04,44,2.90
2015,04,16,04,45,2.90
2015,04,16,04,46,2.90
2015,04,16,04,47,2.90
2015,04,16,04,48,2.90
2015,04,16,04,49,2.90
2015,04,16,04,50,2.90
2015,04,16,04,51,2.90
2015,04,16,04,52,2.90
2015,04,16,04,53,2.90
2015,04,16,04,54,2.90
2015,04,16,04,55,2.90
2015,04,16,04,56,2.90
2015,04,16,04,57,2.90
2015,04,16,04,58,2.90
2015,04,16,04,59,2.90
2015,04,16,05,00,2.90
2015,04,16,05,01,2.90
2015,04,16,05,02,2.90
2015,04,16,05,03,2.90
2015,04,16,05,04,2.90
2015,04,16,05,05,2.90
2015,04,16,05,06,2.90
2015,04,16,05,07,2.90
2015,04,16,05,08,2.90
2015,04,16,05,09,2.90
2015,04,16,05,10,2.90
2015,04,16,05,11,2.90
2015,04,16,05,12,2.80
2015,04,16,05,13,2.80
2015,04,16,05,14,2.80
2015,04,16,05,15,2.80
2015,04,16,05,16,2.80
2015,04,16,05,17,2.80
2015,04,16,05,18,2.80
2015,04,16,05,19,2.80
2015,04,16,05,20,2.80
2015,04,16,05,21,2.70
2015,04,16,05,22,2.70
2015,04,16,05,23,2.70
2015,04,16,05,24,2.70
2015,04,16,05,25,2.70
2015,04,16,05,26,2.70
2015,04,16,05,27,2.70
2015,04,16,05,28,2.70
2015,04,16,05,29,2.70
2015,04,16,05,30,2.70
2015,04,16,05,31,2.70
2015,04,16,05,32,2.70
2015,04,16,05,33,2.70
2015,04,16,05,34,2.70
2015,04,16,05,35,2.70
2015,04,16,05,36,2.70
2015,04,16,05,37,2.70
2015,04,16,05,38,2.70
2015,04,16,05,39,2.70
2015,04,16,05,40,2.70
2015,04,16,05,41,2.60
2015,04,16,05,42,2.60
2015,04,16,05,43,2.60
2015,04,16,05,44,2.60
2015,04,16,05,45,2.50
2015,04,16,05,46,2.50
2015,04,16,05,47,2.40
2015,04,16,05,48,2.40
2015,04,16,05,49,2.40
2015,04,16,05,50,2.30
2015,04,16,05,51,2.30
2015,04,16,05,52,2.30
2015,04,16,05,53,2.30
2015,04,16,05,54,2.30
2015,04,16,05,55,2.30
2015,04,16,05,56,2.30
2015,04,16,05,57,2.30
2015,04,16,05,58,2.30
2015,04,16,05,59,2.30
2015,04,16,06,00,2.30
2015,04,16,06,01,2.20
2015,04,16,06,02,2.20
2015,04,16,06,03,2.20
2015,04,16,06,04,2.20
2015,04,16,06,05,2.20
2015,04,16,06,06,2.20
2015,04,16,06,07,2.20
2015,04,16,06,08,2.20
2015,04,16,06,09,2.20
2015,04,16,06,10,2.20
2015,04,16,06,11,2.20
2015,04,16,06,12,2.20
2015,04,16,06,13,2.20
2015,04,16,06,14,2.20
2015,04,16,06,15,2.20
2015,04,16,06,16,2.20
2015,04,16,06,17,2.20
2015,04,16,06,18,2.20
2015,04,16,06,19,2.20
2015,04,16,06,20,2.20
2015,04,16,06,21,2.20
2015,04,16,06,22,2.20
2015,04,16,06,23,2.20
2015,04,16,06,24,2.20
2015,04,16,06,25,2.20
2015,04,16,06,26,2.20
2015,04,16,06,27,2.20
2015,04,16,06,28,2.10
2015,04,16,06,29,2.10
2015,04,16,06,30,2.10
2015,04,16,06,31,2.10
2015,04,16,06,32,2.10
2015,04,16,06,33,2.00
2015,04,16,06,34,2.00
2015,04,16,06,35,2.00
2015,04,16,06,36,2.00
2015,04,16,06,37,2.00
2015,04,16,06,38,2.00
2015,04,16,06,39,1.90
2015,04,16,06,40,1.90
2015,04,16,06,41,1.90
2015,04,16,06,42,1.90
2015,04,16,06,43,1.90
2015,04,16,06,44,1.90
2015,04,16,06,45,1.90
2015,04,16,06,46,1.90
2015,04,16,06,47,1.90
2015,04,16,06,48,1.90
2015,04,16,06,49,1.90
2015,04,16,06,50,1.90
2015,04,16,06,51,1.90
2015,04,16,06,52,1.90
2015,04,16,06,53,1.90
2015,04,16,06,54,1.90
2015,04,16,06,55,1.90
2015,04,16,06,56,1.90
2015,04,16,06,57,1.90
2015,04,16,06,58,1.90
2015,04,16,06,59,2.00
2015,04,16,07,00,2.00
2015,04,16,07,01,2.00
2015,04,16,07,02,2.00
2015,04,16,07,03,2.10
2015,04,16,07,04,2.10
2015,04,16,07,05,2.10
2015,04,16,07,06,2.10
2015,04,16,07,07,2.20
2015,04,16,07,08,2.20
2015,04,16,07,09,2.20
2015,04,16,07,10,2.20
2015,04,16,07,11,2.20
2015,04,16,07,12,2.30
2015,04,16,07,13,2.30
2015,04,16,07,14,2.30
2015,04,16,07,15,2.30
2015,04,16,07,16,2.30
2015,04,16,07,17,2.30
2015,04,16,07,18,2.40
2015,04,16,07,19,2.40
2015,04,16,07,20,2.40
2015,04,16,07,21,2.40
2015,04,16,07,22,2.40
2015,04,16,07,23,2.50
2015,04,16,07,24,2.50
2015,04,16,07,25,2.50
2015,04,16,07,26,2.60
2015,04,16,07,27,2.60
2015,04,16,07,28,2.60
2015,04,16,07,29,2.70
2015,04,16,07,30,2.70
2015,04,16,07,31,2.70
2015,04,16,07,32,2.80
2015,04,16,07,33,2.80
2015,04,16,07,34,2.90
2015,04,16,07,35,2.90
2015,04,16,07,36,3.00
2015,04,16,07,37,3.00
2015,04,16,07,38,3.10
2015,04,16,07,39,3.10
2015,04,16,07,40,3.20
2015,04,16,07,41,3.20
2015,04,16,07,42,3.30
2015,04,16,07,43,3.40
2015,04,16,07,44,3.50
2015,04,16,07,45,3.60
2015,04,16,07,46,3.70
2015,04,16,07,47,3.80
2015,04,16,07,48,3.90
2015,04,16,07,49,4.00
2015,04,16,07,50,4.10
2015,04,16,07,51,4.10
2015,04,16,07,52,4.20
2015,04,16,07,53,4.30
2015,04,16,07,54,4.50
2015,04,16,07,55,4.60
2015,04,16,07,56,4.70
2015,04,16,07,57,4.80
2015,04,16,07,58,4.90
2015,04,16,07,59,5.00
2015,04,16,08,00,5.00
2015,04,16,08,01,5.10
2015,04,16,08,02,5.20
2015,04,16,08,03,5.30
2015,04,16,08,04,5.40
2015,04,16,08,05,5.50
2015,04,16,08,06,5.60
2015,04,16,08,07,5.70
2015,04,16,08,08,5.80
2015,04,16,08,09,5.80
2015,04,16,08,10,5.90
2015,04,16,08,11,6.00
2015,04,16,08,12,6.00
2015,04,16,08,13,6.10
2015,04,16,08,14,6.20
2015,04,16,08,15,6.30
2015,04,16,08,16,6.30
2015,04,16,08,17,6.40
2015,04,16,08,18,6.50
2015,04,16,08,19,6.50
2015,04,16,08,20,6.60
2015,04,16,08,21,6.60
2015,04,16,08,22,6.70
2015,04,16,08,23,6.70
2015,04,16,08,24,6.80
2015,04,16,08,25,6.80
2015,04,16,08,26,6.90
2015,04,16,08,27,6.90
2015,04,16,08,28,7.00
2015,04,16,08,29,7.00
2015,04,16,08,30,7.10
2015,04,16,08,31,7.10
2015,04,16,08,32,7.20
2015,04,16,08,33,7.30
2015,04,16,08,34,7.30
2015,04,16,08,35,7.40
2015,04,16,08,36,7.40
2015,04,16,08,37,7.50
2015,04,16,08,38,7.60
2015,04,16,08,39,7.60
2015,04,16,08,40,7.70
2015,04,16,08,41,7.70
2015,04,16,08,42,7.80
2015,04,16,08,43,7.80
2015,04,16,08,44,7.90
2015,04,16,08,45,8.00
2015,04,16,08,46,8.00
2015,04,16,08,47,8.10
2015,04,16,08,48,8.10
2015,04,16,08,49,8.20
2015,04,16,08,50,8.20
2015,04,16,08,51,8.30
2015,04,16,08,52,8.30
2015,04,16,08,53,8.40
2015,04,16,08,54,8.40
2015,04,16,08,55,8.40
2015,04,16,08,56,8.50
2015,04,16,08,57,8.50
2015,04,16,08,58,8.50
2015,04,16,08,59,8.50
2015,04,16,09,00,8.60
2015,04,16,09,01,8.60
2015,04,16,09,02,8.60
2015,04,16,09,03,8.70
2015,04,16,09,04,8.70
2015,04,16,09,05,8.80
2015,04,16,09,06,8.80
2015,04,16,09,07,8.90
2015,04,16,09,08,9.00
2015,04,16,09,09,9.10
2015,04,16,09,10,9.20
2015,04,16,09,11,9.30
2015,04,16,09,12,9.40
2015,04,16,09,13,9.50
2015,04,16,09,14,9.60
2015,04,16,09,15,9.60
2015,04,16,09,16,9.70
2015,04,16,09,17,9.70
2015,04,16,09,18,9.70
2015,04,16,09,19,9.70
2015,04,16,09,20,9.80
2015,04,16,09,21,9.80
2015,04,16,09,22,9.90
2015,04,16,09,23,10.00
2015,04,16,09,24,10.10
2015,04,16,09,25,10.20
2015,04,16,09,26,10.20
2015,04,16,09,27,10.30
2015,04,16,09,28,10.40
2015,04,16,09,29,10.40
2015,04,16,09,30,10.40
2015,04,16,09,31,10.40
2015,04,16,09,32,10.40
2015,04,16,09,33,10.40
2015,04,16,09,34,10.40
2015,04,16,09,35,10.40
2015,04,16,09,36,10.40
2015,04,16,09,37,10.40
2015,04,16,09,38,10.40
2015,04,16,09,39,10.40
2015,04,16,09,40,10.40
2015,04,16,09,41,10.40
2015,04,16,09,42,10.40
2015,04,16,09,43,10.40
2015,04,16,09,44,10.40
2015,04,16,09,45,10.40
2015,04,16,09,46,10.30
2015,04,16,09,47,10.30
2015,04,16,09,48,10.30
2015,04,16,09,49,10.30
2015,04,16,09,50,10.30
2015,04,16,09,51,10.40
2015,04,16,09,52,10.50
2015,04,16,09,53,10.50
2015,04,16,09,54,10.60
2015,04,16,09,55,10.70
2015,04,16,09,56,10.70
2015,04,16,09,57,10.70
2015,04,16,09,58,10.70
2015,04,16,09,59,10.80
2015,04,16,10,00,10.90
2015,04,16,10,01,10.90
2015,04,16,10,02,11.00
2015,04,16,10,03,11.10
2015,04,16,10,04,11.10
2015,04,16,10,05,11.10
2015,04,16,10,06,11.10
2015,04,16,10,07,11.10
2015,04,16,10,08,11.10
2015,04,16,10,09,11.10
2015,04,16,10,10,11.10
2015,04,16,10,11,11.00
2015,04,16,10,12,10.90
2015,04,16,10,13,10.80
2015,04,16,10,14,10.70
2015,04,16,10,15,10.60
2015,04,16,10,16,10.50
2015,04,16,10,17,10.50
2015,04,16,10,18,10.40
2015,04,16,10,19,10.30
2015,04,16,10,20,10.30
2015,04,16,10,21,10.30
2015,04,16,10,22,10.20
2015,04,16,10,23,10.20
2015,04,16,10,24,10.20
2015,04,16,10,25,10.30
2015,04,16,10,26,10.30
2015,04,16,10,27,10.30
2015,04,16,10,28,10.30
2015,04,16,10,29,10.50
2015,04,16,10,30,10.50
2015,04,16,10,31,10.60
2015,04,16,10,32,10.70
2015,04,16,10,33,10.70
2015,04,16,10,34,10.80
2015,04,16,10,35,10.80
2015,04,16,10,36,10.80
2015,04,16,10,37,10.80
2015,04,16,10,38,10.90
2015,04,16,10,39,11.00
2015,04,16,10,40,11.00
2015,04,16,10,41,11.10
2015,04,16,10,42,11.20
2015,04,16,10,43,11.30
2015,04,16,10,44,11.40
2015,04,16,10,45,11.50
2015,04,16,10,46,11.60
2015,04,16,10,47,11.60
2015,04,16,10,48,11.60
2015,04,16,10,49,11.60
2015,04,16,10,50,11.60
2015,04,16,10,51,11.60
2015,04,16,10,52,11.60
2015,04,16,10,53,11.60
2015,04,16,10,54,11.60
2015,04,16,10,55,11.60
2015,04,16,10,56,11.60
2015,04,16,10,57,11.60
2015,04,16,10,58,11.70
2015,04,16,10,59,11.70
2015,04,16,11,00,11.70
2015,04,16,11,01,11.70
2015,04,16,11,02,11.80
2015,04,16,11,03,11.80
2015,04,16,11,04,11.80
2015,04,16,11,05,11.80
2015,04,16,11,06,11.80
2015,04,16,11,07,11.80
2015,04,16,11,08,11.80
2015,04,16,11,09,11.90
2015,04,16,11,10,11.90
2015,04,16,11,11,12.00
2015,04,16,11,12,12.00
2015,04,16,11,13,11.90
2015,04,16,11,14,11.90
2015,04,16,11,15,11.90
2015,04,16,11,16,12.00
2015,04,16,11,17,12.10
2015,04,16,11,18,12.20
2015,04,16,11,19,12.20
2015,04,16,11,20,12.30
2015,04,16,11,21,12.30
2015,04,16,11,22,12.30
2015,04,16,11,23,12.30
2015,04,16,11,24,12.30
2015,04,16,11,25,12.40
2015,04,16,11,26,12.40
2015,04,16,11,27,12.50
2015,04,16,11,28,12.60
2015,04,16,11,29,12.60
2015,04,16,11,30,12.70
2015,04,16,11,31,12.70
2015,04,16,11,32,12.80
2015,04,16,11,33,12.80
2015,04,16,11,34,12.90
2015,04,16,11,35,12.90
2015,04,16,11,36,12.90
2015,04,16,11,37,13.00
2015,04,16,11,38,13.00
2015,04,16,11,39,13.00
2015,04,16,11,40,12.90
2015,04,16,11,41,12.90
2015,04,16,11,42,12.90
2015,04,16,11,43,12.90
2015,04,16,11,44,12.90
2015,04,16,11,45,12.90
2015,04,16,11,46,12.90
2015,04,16,11,47,13.00
2015,04,16,11,48,13.00
2015,04,16,11,49,13.10
2015,04,16,11,50,13.20
2015,04,16,11,51,13.20
2015,04,16,11,52,13.30
2015,04,16,11,53,13.30
2015,04,16,11,54,13.40
2015,04,16,11,55,13.50
2015,04,16,11,56,13.60
2015,04,16,11,57,13.70
2015,04,16,11,58,13.80
2015,04,16,11,59,13.80
2015,04,16,12,00,13.80
2015,04,16,12,01,13.90
2015,04,16,12,02,14.00
2015,04,16,12,03,14.00
2015,04,16,12,04,14.10
2015,04,16,12,05,14.10
2015,04,16,12,06,14.20
2015,04,16,12,07,14.30
2015,04,16,12,08,14.30
2015,04,16,12,09,14.30
2015,04,16,12,10,14.30
2015,04,16,12,11,14.20
2015,04,16,12,12,14.20
2015,04,16,12,13,14.20
2015,04,16,12,14,14.10
2015,04,16,12,15,13.90
2015,04,16,12,16,13.80
2015,04,16,12,17,13.70
2015,04,16,12,18,13.60
2015,04,16,12,19,13.50
2015,04,16,12,20,13.50
2015,04,16,12,21,13.50
2015,04,16,12,22,13.50
2015,04,16,12,23,13.50
2015,04,16,12,24,13.50
2015,04,16,12,25,13.50
2015,04,16,12,26,13.50
2015,04,16,12,27,13.40
2015,04,16,12,28,13.40
2015,04,16,12,29,13.40
2015,04,16,12,30,13.40
2015,04,16,12,31,13.40
2015,04,16,12,32,13.30
2015,04,16,12,33,13.20
2015,04,16,12,34,13.20
2015,04,16,12,35,13.10
2015,04,16,12,36,13.10
2015,04,16,12,37,13.10
2015,04,16,12,38,13.20
2015,04,16,12,39,13.20
2015,04,16,12,40,13.20
2015,04,16,12,41,13.30
2015,04,16,12,42,13.30
2015,04,16,12,43,13.30
2015,04,16,12,44,13.40
2015,04,16,12,45,13.50
2015,04,16,12,46,13.50
2015,04,16,12,47,13.50
2015,04,16,12,48,13.40
2015,04,16,12,49,13.40
2015,04,16,12,50,13.50
2015,04,16,12,51,13.60
2015,04,16,12,52,13.60
2015,04,16,12,53,13.60
2015,04,16,12,54,13.60
2015,04,16,12,55,13.60
2015,04,16,12,56,13.60
2015,04,16,12,57,13.60
2015,04,16,12,58,14.00
2015,04,16,12,59,14.10
2015,04,16,13,00,14.00
2015,04,16,13,01,14.00
2015,04,16,13,02,14.00
2015,04,16,13,03,14.00
2015,04,16,13,04,14.00
2015,04,16,13,05,14.10
2015,04,16,13,06,14.10
2015,04,16,13,07,14.20
2015,04,16,13,08,14.30
2015,04,16,13,09,14.40
2015,04,16,13,10,14.40
2015,04,16,13,11,14.40
2015,04,16,13,12,14.40
2015,04,16,13,13,14.50
2015,04,16,13,14,14.50
2015,04,16,13,15,14.60
2015,04,16,13,16,14.60
2015,04,16,13,17,14.60
2015,04,16,13,18,14.60
2015,04,16,13,19,14.50
2015,04,16,13,20,14.50
2015,04,16,13,21,14.40
2015,04,16,13,22,14.30
2015,04,16,13,23,14.30
2015,04,16,13,24,14.30
2015,04,16,13,25,14.30
2015,04,16,13,26,14.30
2015,04,16,13,27,14.30
2015,04,16,13,28,14.20
2015,04,16,13,29,14.20
2015,04,16,13,30,14.10
2015,04,16,13,31,14.10
2015,04,16,13,32,14.10
2015,04,16,13,33,14.10
2015,04,16,13,34,14.10
2015,04,16,13,35,14.10
2015,04,16,13,36,14.10
2015,04,16,13,37,14.10
2015,04,16,13,38,14.20
2015,04,16,13,39,14.30
2015,04,16,13,40,14.30
2015,04,16,13,41,14.40
2015,04,16,13,42,14.40
2015,04,16,13,43,14.40
2015,04,16,13,44,14.40
2015,04,16,13,45,14.40
2015,04,16,13,46,14.40
2015,04,16,13,47,14.30
2015,04,16,13,48,14.10
2015,04,16,13,49,14.10
2015,04,16,13,50,14.00
2015,04,16,13,51,14.00
2015,04,16,13,52,13.90
2015,04,16,13,53,13.90
2015,04,16,13,54,13.90
2015,04,16,13,55,13.90
2015,04,16,13,56,14.00
2015,04,16,13,57,14.10
2015,04,16,13,58,14.10
2015,04,16,13,59,14.20
2015,04,16,14,00,14.30
2015,04,16,14,01,14.30
2015,04,16,14,02,14.30
2015,04,16,14,03,14.40
2015,04,16,14,04,14.50
2015,04,16,14,05,14.50
2015,04,16,14,06,14.50
2015,04,16,14,07,14.50
2015,04,16,14,08,14.50
2015,04,16,14,09,14.50
2015,04,16,14,10,14.50
2015,04,16,14,11,14.50
2015,04,16,14,12,14.50
2015,04,16,14,13,14.50
2015,04,16,14,14,14.60
2015,04,16,14,15,14.60
2015,04,16,14,16,14.70
2015,04,16,14,17,14.70
2015,04,16,14,18,14.70
2015,04,16,14,19,14.70
2015,04,16,14,20,14.80
2015,04,16,14,21,14.80
2015,04,16,14,22,14.90
2015,04,16,14,23,14.90
2015,04,16,14,24,15.00
2015,04,16,14,25,15.10
2015,04,16,14,26,15.20
2015,04,16,14,27,15.20
2015,04,16,14,28,15.20
2015,04,16,14,29,15.20
2015,04,16,14,30,15.10
2015,04,16,14,31,15.10
2015,04,16,14,32,15.10
2015,04,16,14,33,15.10
2015,04,16,14,34,15.10
2015,04,16,14,35,15.10
2015,04,16,14,36,15.10
2015,04,16,14,37,15.10
2015,04,16,14,38,15.10
2015,04,16,14,39,15.10
2015,04,16,14,40,15.20
2015,04,16,14,41,15.30
2015,04,16,14,42,15.40
2015,04,16,14,43,15.50
2015,04,16,14,44,15.50
2015,04,16,14,45,15.60
2015,04,16,14,46,15.70
2015,04,16,14,47,15.70
2015,04,16,14,48,15.80
2015,04,16,14,49,15.80
2015,04,16,14,50,15.90
2015,04,16,14,51,16.00
2015,04,16,14,52,16.00
2015,04,16,14,53,16.10
2015,04,16,14,54,16.20
2015,04,16,14,55,16.10
2015,04,16,14,56,16.10
2015,04,16,14,57,16.10
2015,04,16,14,58,16.10
2015,04,16,14,59,16.10
2015,04,16,15,00,16.10
2015,04,16,15,01,16.00
2015,04,16,15,02,16.00
2015,04,16,15,03,16.00
2015,04,16,15,04,16.10
2015,04,16,15,05,16.10
2015,04,16,15,06,16.20
2015,04,16,15,07,16.30
2015,04,16,15,08,16.40
2015,04,16,15,09,16.50
2015,04,16,15,10,16.50
2015,04,16,15,11,16.50
2015,04,16,15,12,16.60
2015,04,16,15,13,16.60
2015,04,16,15,14,16.60
2015,04,16,15,15,16.60
2015,04,16,15,16,16.60
2015,04,16,15,17,16.50
2015,04,16,15,18,16.50
2015,04,16,15,19,16.50
2015,04,16,15,20,16.50
2015,04,16,15,21,16.40
2015,04,16,15,22,16.40
2015,04,16,15,23,16.30
2015,04,16,15,24,16.20
2015,04,16,15,25,16.20
2015,04,16,15,26,16.10
2015,04,16,15,27,16.00
2015,04,16,15,28,15.90
2015,04,16,15,29,15.90
2015,04,16,15,30,15.90
2015,04,16,15,31,15.90
2015,04,16,15,32,15.90
2015,04,16,15,33,16.00
2015,04,16,15,34,15.90
2015,04,16,15,35,15.90
2015,04,16,15,36,15.90
2015,04,16,15,37,16.00
2015,04,16,15,38,16.10
2015,04,16,15,39,16.10
2015,04,16,15,40,16.20
2015,04,16,15,41,16.20
2015,04,16,15,42,16.30
2015,04,16,15,43,16.30
2015,04,16,15,44,16.40
2015,04,16,15,45,16.40
2015,04,16,15,46,16.40
2015,04,16,15,47,16.40
2015,04,16,15,48,16.50
2015,04,16,15,49,16.50
2015,04,16,15,50,16.50
2015,04,16,15,51,16.60
2015,04,16,15,52,16.60
2015,04,16,15,53,16.60
2015,04,16,15,54,16.60
2015,04,16,15,55,16.70
2015,04,16,15,56,16.70
2015,04,16,15,57,16.80
2015,04,16,15,58,16.80
2015,04,16,15,59,16.80
2015,04,16,16,00,16.80
2015,04,16,16,01,16.70
2015,04,16,16,02,16.70
2015,04,16,16,03,16.60
2015,04,16,16,04,16.50
2015,04,16,16,05,16.50
2015,04,16,16,06,16.50
2015,04,16,16,07,16.50
2015,04,16,16,08,16.40
2015,04,16,16,09,16.40
2015,04,16,16,10,16.40
2015,04,16,16,11,16.40
2015,04,16,16,12,16.40
2015,04,16,16,13,16.40
2015,04,16,16,14,16.50
2015,04,16,16,15,16.50
2015,04,16,16,16,16.50
2015,04,16,16,17,16.60
2015,04,16,16,18,16.70
2015,04,16,16,19,16.80
2015,04,16,16,20,16.80
2015,04,16,16,21,16.90
2015,04,16,16,22,17.00
2015,04,16,16,23,17.00
2015,04,16,16,24,17.10
2015,04,16,16,25,17.10
2015,04,16,16,26,17.10
2015,04,16,16,27,17.10
2015,04,16,16,28,17.10
2015,04,16,16,29,17.00
2015,04,16,16,30,17.00
2015,04,16,16,31,17.00
2015,04,16,16,32,17.00
2015,04,16,16,33,17.00
2015,04,16,16,34,16.90
2015,04,16,16,35,16.90
2015,04,16,16,36,16.90
2015,04,16,16,37,16.90
2015,04,16,16,38,16.90
2015,04,16,16,39,16.90
2015,04,16,16,40,16.90
2015,04,16,16,41,16.90
2015,04,16,16,42,16.90
2015,04,16,16,43,16.90
2015,04,16,16,44,16.80
2015,04,16,16,45,16.80
2015,04,16,16,46,16.70
2015,04,16,16,47,16.70
2015,04,16,16,48,16.70
2015,04,16,16,49,16.70
2015,04,16,16,50,16.70
2015,04,16,16,51,16.70
2015,04,16,16,52,16.70
2015,04,16,16,53,16.80
2015,04,16,16,54,16.80
2015,04,16,16,55,16.80
2015,04,16,16,56,16.80
2015,04,16,16,57,16.80
2015,04,16,16,58,16.90
2015,04,16,16,59,16.90
2015,04,16,17,00,16.90
2015,04,16,17,01,17.00
2015,04,16,17,02,16.90
2015,04,16,17,03,16.90
2015,04,16,17,04,16.90
2015,04,16,17,05,16.90
2015,04,16,17,06,16.90
2015,04,16,17,07,16.90
2015,04,16,17,08,16.90
2015,04,16,17,09,16.90
2015,04,16,17,10,16.90
2015,04,16,17,11,16.90
2015,04,16,17,12,16.90
2015,04,16,17,13,16.90
2015,04,16,17,14,16.90
2015,04,16,17,15,16.90
2015,04,16,17,16,17.00
2015,04,16,17,17,17.10
2015,04,16,17,18,17.10
2015,04,16,17,19,17.10
2015,04,16,17,20,17.10
2015,04,16,17,21,17.10
2015,04,16,17,22,17.10
2015,04,16,17,23,17.10
2015,04,16,17,24,17.00
2015,04,16,17,25,17.00
2015,04,16,17,26,17.00
2015,04,16,17,27,17.00
2015,04,16,17,28,16.90
2015,04,16,17,29,16.90
2015,04,16,17,30,16.90
2015,04,16,17,31,16.80
2015,04,16,17,32,16.80
2015,04,16,17,33,16.70
2015,04,16,17,34,16.70
2015,04,16,17,35,16.70
2015,04,16,17,36,16.50
2015,04,16,17,37,16.40
2015,04,16,17,38,16.40
2015,04,16,17,39,16.30
2015,04,16,17,40,16.30
2015,04,16,17,41,16.20
2015,04,16,17,42,16.20
2015,04,16,17,43,16.20